FW9061 Weather Reports


time (UTC)temp
C
wind
direction
speed
KPH
gust
KPH
rain 1hr
cm
rain 24hr
cm
rain mn
cm
humidity
%
barometer
mb
20260507105600 10 159 0.0 3.2 0.00 0.00 0.00 87 1020.4
20260507105055 10 164 0.0 0.0 0.00 0.00 0.00 88 1020.7
20260507104553 10 134 0.0 0.0 0.00 0.00 0.00 88 1020.6
20260507104049 10 134 0.0 0.0 0.00 0.00 0.00 89 1020.5
20260507103545 10 134 0.0 0.0 0.00 0.00 0.00 88 1020.5
20260507103042 10 134 0.0 0.0 0.00 0.00 0.00 88 1020.7
20260507102539 10 134 0.0 0.0 0.00 0.00 0.00 88 1020.8
20260507102035 10 134 0.0 0.0 0.00 0.00 0.00 88 1020.6
20260507101530 10 134 0.0 0.0 0.00 0.00 0.00 88 1020.6
20260507101027 10 134 0.0 0.0 0.00 0.00 0.00 88 1020.8
20260507100525 10 134 0.0 0.0 0.00 0.00 0.00 87 1020.6
20260507100023 10 134 0.0 0.0 0.00 0.00 0.00 87 1020.8
20260507095520 10 134 1.6 1.6 0.00 0.00 0.00 87 1020.7
20260507095016 10 144 0.0 0.0 0.00 0.00 0.00 87 1020.6
20260507094513 10 146 0.0 0.0 0.00 0.00 0.00 87 1020.6
20260507094010 10 149 0.0 0.0 0.00 0.00 0.00 87 1020.6
20260507093507 10 149 0.0 3.2 0.00 0.00 0.00 87 1020.6
20260507093006 10 149 1.6 3.2 0.00 0.00 0.00 88 1020.6
20260507092502 10 152 0.0 1.6 0.00 0.00 0.00 89 1020.8
20260507091959 10 166 1.6 3.2 0.00 0.00 0.00 89 1020.6
20260507091455 10 155 0.0 1.6 0.00 0.00 0.00 90 1020.4
20260507090951 10 149 0.0 1.6 0.00 0.00 0.00 90 1020.5
20260507090447 10 151 1.6 1.6 0.00 0.00 0.00 90 1020.5
20260507085944 10 145 0.0 0.0 0.00 0.00 0.00 90 1020.7
20260507085442 10 148 0.0 1.6 0.00 0.00 0.00 90 1020.5
20260507084938 10 147 1.6 1.6 0.00 0.00 0.00 90 1020.5
20260507084435 10 154 0.0 0.0 0.00 0.00 0.00 90 1020.6
20260507083933 10 155 0.0 1.6 0.00 0.00 0.00 90 1020.6
20260507083429 10 149 1.6 4.8 0.00 0.00 0.00 90 1020.6
20260507082925 10 153 1.6 1.6 0.00 0.00 0.00 90 1020.4
20260507082421 10 151 0.0 1.6 0.00 0.00 0.00 90 1020.5
20260507081918 10 161 3.2 4.8 0.00 0.00 0.00 90 1020.6
20260507081414 10 171 0.0 3.2 0.00 0.00 0.00 90 1020.6
20260507080911 10 150 1.6 3.2 0.00 0.00 0.00 90 1020.5
20260507080407 10 146 0.0 4.8 0.00 0.00 0.00 90 1020.4
20260507075902 10 144 0.0 3.2 0.00 0.00 0.00 90 1020.6
20260507075359 10 138 0.0 1.6 0.00 0.00 0.00 90 1020.6
20260507074855 10 138 0.0 1.6 0.00 0.00 0.00 90 1020.5
20260507074353 10 162 1.6 3.2 0.00 0.00 0.00 90 1020.5
20260507073850 10 148 0.0 4.8 0.00 0.00 0.00 90 1020.4
20260507073346 10 195 3.2 4.8 0.00 0.00 0.00 91 1020.4
20260507072843 10 150 1.6 4.8 0.00 0.00 0.00 91 1020.5
20260507072341 10 164 4.8 9.7 0.00 0.00 0.00 91 1020.4
20260507071838 10 145 0.0 3.2 0.00 0.00 0.00 92 1020.2
20260507071335 10 185 3.2 6.4 0.00 0.00 0.00 92 1020.4
20260507070831 10 172 3.2 6.4 0.00 0.00 0.00 92 1020.4
20260507070329 10 178 1.6 6.4 0.00 0.00 0.00 92 1020.3
20260507065825 10 144 0.0 3.2 0.00 0.00 0.00 92 1020.4
20260507065322 10 201 4.8 4.8 0.00 0.00 0.00 92 1020.5
20260507064819 10 194 3.2 6.4 0.00 0.00 0.00 93 1020.4
20260507064318 10 149 1.6 6.4 0.00 0.00 0.00 93 1020.5
20260507063816 10 152 1.6 1.6 0.00 0.00 0.00 93 1020.5
20260507063312 10 157 0.0 3.2 0.00 0.00 0.00 93 1020.4
20260507062809 10 152 0.0 1.6 0.00 0.00 0.00 93 1020.5
20260507062306 10 195 4.8 6.4 0.00 0.00 0.00 92 1020.4
20260507061804 11 151 1.6 4.8 0.00 0.00 0.00 93 1020.4
20260507061302 11 166 0.0 1.6 0.00 0.00 0.00 92 1020.6
20260507060800 11 156 1.6 6.4 0.00 0.00 0.00 92 1020.8
20260507060256 11 175 1.6 4.8 0.00 0.00 0.00 92 1020.6
20260507055752 11 173 3.2 4.8 0.00 0.00 0.00 92 1020.6
20260507055248 11 147 1.6 1.6 0.00 0.00 0.00 92 1020.4
20260507054744 11 167 1.6 3.2 0.00 0.00 0.00 91 1020.5
20260507054241 11 169 1.6 4.8 0.00 0.00 0.00 90 1020.5
20260507053738 11 183 1.6 1.6 0.00 0.00 0.00 90 1020.6
20260507053236 11 154 0.0 9.7 0.00 0.00 0.00 90 1020.7
20260507052735 11 157 3.2 3.2 0.00 0.00 0.00 90 1020.6
20260507052231 11 159 1.6 3.2 0.00 0.00 0.00 89 1020.6
20260507051729 11 161 1.6 1.6 0.00 0.00 0.00 89 1020.7
20260507051225 11 180 1.6 3.2 0.00 0.00 0.00 89 1020.4
20260507050722 11 162 3.2 12.9 0.00 0.00 0.00 88 1020.5
20260507050219 11 209 1.6 6.4 0.00 0.00 0.00 88 1020.5
20260507045716 11 145 1.6 3.2 0.00 0.00 0.00 87 1020.5
20260507045212 11 151 1.6 3.2 0.00 0.00 0.00 87 1020.4
20260507044709 11 154 1.6 4.8 0.00 0.00 0.00 88 1020.5
20260507044206 11 151 0.0 0.0 0.00 0.00 0.00 88 1020.5
20260507043702 11 154 1.6 1.6 0.00 0.00 0.00 88 1020.5
20260507043159 11 155 1.6 1.6 0.00 0.00 0.00 89 1020.4
20260507042656 11 148 0.0 3.2 0.00 0.00 0.00 88 1020.6
20260507042150 11 163 1.6 3.2 0.00 0.00 0.00 87 1020.4
20260507041648 11 141 0.0 4.8 0.00 0.00 0.00 86 1020.5
20260507041144 11 145 0.0 3.2 0.00 0.00 0.00 86 1020.3
20260507040641 12 151 1.6 1.6 0.00 0.00 0.00 85 1020.4
20260507040138 12 165 1.6 3.2 0.00 0.00 0.00 84 1020.5
20260507035633 12 150 1.6 4.8 0.00 0.00 0.00 84 1020.4
20260507035130 12 174 0.0 1.6 0.00 0.00 0.00 83 1020.2
20260507034626 12 143 0.0 1.6 0.00 0.00 0.00 83 1020.4
20260507034124 12 143 1.6 1.6 0.00 0.00 0.00 83 1020.5
20260507033623 12 146 0.0 3.2 0.00 0.00 0.00 83 1020.0
20260507033119 12 124 0.0 1.6 0.00 0.00 0.00 82 1020.3
20260507032617 12 166 3.2 4.8 0.00 0.00 0.00 81 1020.2
20260507032113 12 137 0.0 0.0 0.00 0.00 0.00 81 1020.3
20260507031609 12 146 0.0 1.6 0.00 0.00 0.00 80 1020.1
20260507031106 12 147 0.0 1.6 0.00 0.00 0.00 80 1020.1
20260507030603 12 152 1.6 3.2 0.00 0.00 0.00 79 1020.5
20260507030101 12 178 1.6 9.7 0.00 0.00 0.00 79 1020.0
20260507025558 12 161 1.6 4.8 0.00 0.00 0.00 78 1019.9
20260507025055 12 138 0.0 3.2 0.00 0.00 0.00 78 1019.9
20260507024553 12 139 0.0 4.8 0.00 0.00 0.00 77 1020.0
20260507024049 12 147 1.6 3.2 0.00 0.00 0.00 78 1019.8
20260507023544 12 145 1.6 4.8 0.00 0.00 0.00 77 1019.8
20260507023043 13 150 0.0 4.8 0.00 0.00 0.00 77 1019.6
20260507022539 13 163 1.6 4.8 0.00 0.00 0.00 76 1019.7
20260507022034 13 103 1.6 3.2 0.00 0.00 0.00 77 1019.8
20260507021531 13 176 3.2 4.8 0.00 0.00 0.00 76 1019.8
20260507021027 13 134 0.0 3.2 0.00 0.00 0.00 76 1019.6
20260507020525 13 154 0.0 6.4 0.00 0.00 0.00 76 1019.8
20260507020021 13 144 0.0 1.6 0.00 0.00 0.00 76 1019.7
20260507015520 13 149 1.6 1.6 0.00 0.00 0.00 76 1019.8
20260507015017 13 151 0.0 3.2 0.00 0.00 0.00 77 1020.0
20260507014513 13 141 0.0 1.6 0.00 0.00 0.00 76 1019.9
20260507014009 13 151 0.0 3.2 0.00 0.00 0.00 76 1019.9
20260507013506 13 140 0.0 3.2 0.00 0.00 0.00 76 1020.0
20260507013003 13 136 1.6 4.8 0.00 0.00 0.00 75 1019.9
20260507012500 13 151 1.6 4.8 0.00 0.00 0.00 76 1019.8
20260507011957 13 107 0.0 4.8 0.00 0.00 0.00 76 1019.9
20260507011454 13 145 0.0 6.4 0.00 0.00 0.00 76 1019.8
20260507010949 13 172 3.2 3.2 0.00 0.00 0.00 76 1019.8
20260507010444 13 192 3.2 4.8 0.00 0.00 0.00 76 1019.7
20260507005941 13 145 1.6 1.6 0.00 0.00 0.00 76 1019.9
20260507005438 13 143 1.6 1.6 0.00 0.00 0.00 76 1019.9
20260507004935 13 113 0.0 3.2 0.00 0.00 0.00 76 1020.0
20260507004432 13 184 1.6 3.2 0.00 0.00 0.00 76 1019.9
20260507003929 13 148 3.2 3.2 0.00 0.00 0.00 75 1019.9
20260507003424 13 151 1.6 3.2 0.00 0.00 0.00 75 1020.0
20260507002920 13 149 0.0 1.6 0.00 0.00 0.00 76 1019.9
20260507002416 13 137 0.0 6.4 0.00 0.00 0.00 75 1019.9
20260507001913 13 146 1.6 11.3 0.00 0.00 0.00 75 1020.1
20260507001410 13 154 1.6 1.6 0.00 0.00 0.00 77 1019.7
20260507000907 13 157 3.2 4.8 0.00 0.00 0.00 76 1019.9
20260507000402 13 148 1.6 1.6 0.00 0.00 0.00 77 1020.0
20260506235859 13 152 0.0 1.6 0.00 0.00 0.00 76 1020.0
20260506235356 13 152 0.0 3.2 0.00 0.00 0.00 76 1019.8
20260506234851 13 129 0.0 9.7 0.00 0.00 0.00 76 1019.8
20260506234349 13 135 0.0 1.6 0.00 0.00 0.00 76 1019.9
20260506233847 13 146 1.6 3.2 0.00 0.00 0.00 76 1020.1
20260506233343 13 125 3.2 4.8 0.00 0.00 0.00 76 1020.0
20260506232840 13 143 1.6 4.8 0.00 0.00 0.00 76 1019.8
20260506232336 13 174 3.2 4.8 0.00 0.00 0.00 75 1020.1
20260506231832 13 138 1.6 6.4 0.00 0.00 0.00 74 1020.0
20260506231330 13 165 3.2 4.8 0.00 0.00 0.00 74 1020.0
20260506230827 13 119 1.6 3.2 0.00 0.00 0.00 75 1020.1
20260506230324 13 108 3.2 6.4 0.00 0.00 0.00 74 1020.1
20260506225820 13 135 3.2 9.7 0.00 0.00 0.00 73 1020.2
20260506225318 13 173 1.6 4.8 0.00 0.00 0.00 73 1020.1
20260506224814 13 178 3.2 9.7 0.00 0.00 0.00 73 1019.9
20260506224311 13 198 3.2 4.8 0.00 0.00 0.00 74 1020.1
20260506223808 13 131 1.6 3.2 0.00 0.00 0.00 73 1020.3
20260506223303 13 159 1.6 3.2 0.00 0.00 0.00 74 1020.1
20260506222800 13 185 3.2 4.8 0.00 0.00 0.00 74 1020.0
20260506222256 13 124 4.8 6.4 0.00 0.00 0.00 73 1020.1
20260506221754 13 259 6.4 11.3 0.00 0.00 0.00 72 1020.0
20260506221251 13 125 0.0 6.4 0.00 0.00 0.00 72 1020.2
20260506220749 13 182 1.6 3.2 0.00 0.00 0.00 71 1020.5
20260506220243 13 166 3.2 9.7 0.00 0.00 0.00 70 1020.3
20260506215741 14 91 3.2 6.4 0.00 0.00 0.00 69 1020.3
20260506215236 15 181 3.2 9.7 0.00 0.00 0.00 67 1020.3
20260506214733 15 131 0.0 3.2 0.00 0.00 0.00 68 1020.2
20260506214230 14 147 0.0 3.2 0.00 0.00 0.00 69 1020.4
20260506213728 13 190 1.6 3.2 0.00 0.00 0.00 71 1020.2
20260506213225 13 116 3.2 9.7 0.00 0.00 0.00 71 1020.4
20260506212722 13 181 4.8 6.4 0.00 0.00 0.00 72 1020.1
20260506212218 13 32 1.6 12.9 0.00 0.00 0.00 73 1020.6
20260506211713 13 134 0.0 12.9 0.00 0.00 0.00 72 1020.4
20260506211210 13 142 1.6 6.4 0.00 0.00 0.00 72 1020.3
20260506210707 13 153 1.6 3.2 0.00 0.00 0.00 73 1020.3
20260506210204 13 182 6.4 9.7 0.00 0.00 0.00 72 1020.3
20260506205701 14 106 4.8 6.4 0.00 0.00 0.00 70 1020.2
20260506205156 13 176 1.6 3.2 0.00 0.00 0.00 71 1020.1
20260506204654 13 143 0.0 9.7 0.00 0.00 0.00 72 1020.3
20260506204150 13 154 0.0 1.6 0.00 0.00 0.00 71 1020.2
20260506203648 13 125 1.6 4.8 0.00 0.00 0.00 71 1020.1
20260506203145 14 172 3.2 4.8 0.00 0.00 0.00 70 1020.3
20260506202643 13 143 0.0 1.6 0.00 0.00 0.00 72 1020.0
20260506202139 13 184 1.6 4.8 0.00 0.00 0.00 71 1020.2
20260506201636 13 107 0.0 3.2 0.00 0.00 0.00 71 1020.2
20260506201132 13 134 3.2 4.8 0.00 0.00 0.00 73 1020.2
20260506200629 13 178 3.2 4.8 0.00 0.00 0.00 73 1020.1
20260506200126 13 136 1.6 3.2 0.00 0.00 0.00 74 1020.2
20260506195623 13 153 0.0 4.8 0.00 0.00 0.00 73 1020.2
20260506195119 13 159 3.2 9.7 0.00 0.00 0.00 73 1020.0
20260506194617 13 136 0.0 3.2 0.00 0.00 0.00 74 1019.8
20260506194113 13 172 3.2 4.8 0.00 0.00 0.00 73 1020.0
20260506193611 13 175 1.6 3.2 0.00 0.00 0.00 75 1020.0
20260506193108 13 130 0.0 3.2 0.00 0.00 0.00 76 1020.1
20260506192604 13 150 0.0 1.6 0.00 0.00 0.00 77 1019.9
20260506192100 13 178 1.6 1.6 0.00 0.00 0.00 78 1020.0
20260506191557 12 153 0.0 6.4 0.00 0.00 0.00 79 1019.9
20260506191053 12 150 3.2 4.8 0.00 0.00 0.00 78 1019.9
20260506190550 12 179 1.6 3.2 0.00 0.00 0.00 80 1019.8
20260506190047 12 177 3.2 4.8 0.00 0.00 0.00 79 1019.9
20260506185545 12 155 0.0 3.2 0.00 0.00 0.00 81 1019.6
20260506185041 12 154 0.0 1.6 0.00 0.00 0.00 82 1019.8
20260506184538 12 177 0.0 3.2 0.00 0.00 0.00 83 1020.0
20260506184036 12 126 1.6 4.8 0.00 0.00 0.00 82 1020.1
20260506183531 12 137 1.6 4.8 0.00 0.00 0.00 83 1020.1
20260506183028 12 141 0.0 1.6 0.00 0.00 0.00 84 1019.9
20260506182526 12 93 1.6 3.2 0.00 0.00 0.00 84 1020.0
20260506182023 11 150 0.0 3.2 0.00 0.00 0.00 85 1020.0
20260506181521 12 140 0.0 1.6 0.00 0.00 0.00 85 1020.0
20260506181017 11 171 1.6 3.2 0.00 0.00 0.00 86 1020.1
20260506180514 11 149 0.0 1.6 0.00 0.00 0.00 87 1019.9
20260506180010 11 143 0.0 1.6 0.00 0.00 0.00 88 1019.4
20260506175507 11 153 1.6 6.4 0.00 0.00 0.00 88 1019.6
20260506175003 11 166 3.2 4.8 0.00 0.00 0.00 88 1019.6
20260506174502 11 151 3.2 4.8 0.00 0.00 0.00 88 1019.8
20260506173958 11 154 1.6 1.6 0.00 0.00 0.00 90 1019.7
20260506173456 11 179 0.0 3.2 0.00 0.00 0.00 90 1019.4
20260506172952 11 145 0.0 3.2 0.00 0.00 0.00 91 1019.7
20260506172450 11 127 0.0 3.2 0.00 0.00 0.00 91 1019.9
20260506171946 11 179 1.6 1.6 0.00 0.00 0.00 92 1019.7
20260506171443 11 155 1.6 1.6 0.00 0.00 0.00 93 1019.5
20260506170941 11 151 3.2 3.2 0.00 0.00 0.00 93 1019.8
20260506170437 11 139 0.0 4.8 0.00 0.00 0.00 93 1019.8
20260506165936 11 153 1.6 1.6 0.00 0.00 0.00 94 1019.7
20260506165434 11 151 0.0 0.0 0.00 0.00 0.00 94 1019.7
20260506164930 11 159 1.6 3.2 0.00 0.00 0.00 94 1019.6
20260506164427 11 148 1.6 1.6 0.00 0.00 0.00 93 1019.7
20260506163925 11 157 1.6 3.2 0.00 0.00 0.00 93 1019.7
20260506163425 11 183 1.6 3.2 0.00 0.00 0.00 93 1019.6
20260506162920 11 228 1.6 4.8 0.00 0.00 0.00 93 1019.6
20260506162419 11 144 0.0 1.6 0.00 0.00 0.00 94 1019.3
20260506161916 11 145 0.0 1.6 0.00 0.00 0.00 93 1019.0
20260506161414 11 148 1.6 6.4 0.00 0.00 0.00 93 1019.0
20260506160911 11 172 1.6 4.8 0.00 0.00 0.00 93 1019.0
20260506160408 11 194 3.2 4.8 0.00 0.00 0.00 93 1019.0
20260506155906 11 132 0.0 1.6 0.00 0.00 0.00 93 1019.1
20260506155402 10 173 1.6 3.2 0.00 0.00 0.00 93 1019.1
20260506153519 10 178 1.6 1.6 0.00 0.00 0.00 94 1019.3
20260506153017 10 137 0.0 4.8 0.00 0.00 0.00 94 1019.6
20260506152513 10 112 0.0 1.6 0.00 0.00 0.00 94 1019.3
20260506152011 10 157 3.2 9.7 0.00 0.00 0.00 94 1019.3
20260506151509 10 187 3.2 3.2 0.00 0.00 0.00 94 1019.4
20260506151006 10 140 0.0 3.2 0.00 0.00 0.00 94 1019.3
20260506150502 10 188 3.2 4.8 0.00 0.00 0.00 94 1018.9
20260506145959 10 165 0.0 1.6 0.00 0.00 0.00 94 1018.9
20260506145455 10 154 3.2 4.8 0.00 0.00 0.00 94 1019.0
20260506144953 10 158 3.2 3.2 0.00 0.00 0.00 93 1019.2
20260506144450 11 151 1.6 1.6 0.00 0.00 0.00 94 1019.1
20260506143948 10 175 1.6 4.8 0.00 0.00 0.00 93 1019.1
20260506143444 10 161 0.0 1.6 0.00 0.00 0.00 93 1019.2
20260506142943 10 144 0.0 1.6 0.00 0.00 0.00 93 1019.4
20260506142440 10 175 0.0 1.6 0.00 0.00 0.00 93 1019.2
20260506141939 10 149 0.0 3.2 0.00 0.00 0.00 93 1019.0
20260506141436 11 168 1.6 4.8 0.00 0.00 0.00 93 1019.0
20260506140935 10 167 1.6 3.2 0.00 0.00 0.00 93 1018.8
20260506140431 10 117 0.0 1.6 0.00 0.00 0.00 93 1018.7
20260506135928 11 196 3.2 4.8 0.00 0.00 0.00 92 1018.7
20260506135425 11 137 0.0 1.6 0.00 0.00 0.00 92 1018.8
20260506134921 10 146 0.0 1.6 0.00 0.00 0.00 92 1019.1
20260506134417 10 176 3.2 3.2 0.00 0.00 0.00 92 1019.1
20260506133915 10 124 0.0 4.8 0.00 0.00 0.00 91 1018.6
20260506133411 10 145 1.6 3.2 0.00 0.00 0.00 91 1018.8
20260506132908 11 164 3.2 3.2 0.00 0.00 0.00 91 1018.9
20260506132405 11 169 3.2 4.8 0.00 0.00 0.00 91 1019.2
20260506131903 11 148 0.0 1.6 0.00 0.00 0.00 90 1018.7
20260506131359 11 150 0.0 1.6 0.00 0.00 0.00 90 1018.6
20260506130856 11 127 0.0 1.6 0.00 0.00 0.00 90 1018.8
20260506130352 11 175 3.2 3.2 0.00 0.00 0.00 90 1018.3
20260506125850 11 152 1.6 4.8 0.00 0.00 0.00 90 1018.0
20260506125349 11 140 0.0 3.2 0.00 0.00 0.00 90 1018.5
20260506124847 11 128 0.0 3.2 0.00 0.00 0.00 90 1018.6
20260506124343 11 140 0.0 1.6 0.00 0.00 0.00 90 1018.3
20260506123841 11 149 0.0 1.6 0.00 0.00 0.00 90 1018.4
20260506123339 11 184 1.6 3.2 0.00 0.00 0.00 90 1018.5
20260506122836 11 159 1.6 3.2 0.00 0.00 0.00 90 1018.2
20260506122333 11 141 1.6 3.2 0.00 0.00 0.00 90 1018.2
20260506121831 11 147 0.0 1.6 0.00 0.00 0.00 90 1018.2
20260506121328 11 151 0.0 6.4 0.00 0.00 0.00 90 1018.3
20260506120825 11 236 3.2 4.8 0.00 0.00 0.00 90 1018.0
20260506120323 11 150 1.6 3.2 0.00 0.00 0.00 89 1018.1
20260506115820 11 158 1.6 1.6 0.00 0.00 0.00 89 1018.3
20260506115318 11 142 0.0 1.6 0.00 0.00 0.00 89 1018.0
20260506114816 11 167 3.2 4.8 0.00 0.00 0.00 89 1017.9
20260506114313 11 169 3.2 3.2 0.00 0.00 0.00 89 1017.9
20260506113812 11 172 1.6 4.8 0.00 0.00 0.00 89 1017.5
20260506113309 11 190 3.2 6.4 0.00 0.00 0.00 89 1018.0
20260506112805 11 157 0.0 1.6 0.00 0.00 0.00 88 1018.0
20260506112305 11 156 1.6 6.4 0.00 0.00 0.00 87 1018.1
20260506111800 11 188 1.6 6.4 0.00 0.00 0.00 87 1017.9
20260506111258 11 136 0.0 1.6 0.00 0.00 0.00 87 1017.8
20260506110755 11 194 3.2 4.8 0.00 0.00 0.00 87 1017.9